Flag for Germany Weather past 2 weeks in Gaggenau, Baden-Württemberg, Germany

Now
46 °F

Clear.


Feels Like: 44 °F
Forecast: 48 / 61 °F
Wind: 5 mph from Southwest

Location: Karlsruhe - Baden Wurttemberg

Current Time: Sep 5, 2015 at 7:45:51 AM

Latest Report: Sep 5, 2015 at 6:50 AM


Visibility: 10 mi

Pressure: 30.04 "Hg

Humidity: 87%

Dew point: 43 °F

Location of GaggenauLocation

Historic Weather in Gaggenau — Graph

°F

Gaggenau temperature yesterday

Maximum temperature yesterday: 68 °F (at 2:50 PM)
Minimum temperature yesterday: 50 °F (at 6:20 AM)
Average temperature yesterday: 59 °F

Past Weeks' High & Low Weather Summary

 TemperatureHumidityPressure
High93 °F (Aug 30, 4:20 PM)94% (Aug 21, 7:20 AM)30.24 "Hg (Aug 21, 7:20 AM)
Low45 °F (Sep 5, 6:20 AM)19% (Aug 31, 3:20 PM)29.68 "Hg (Aug 24, 7:20 AM)
Average69 °F60%29.98 "Hg
* Reported Aug 21 6:20 AM — Sep 5 6:50 AM, Gaggenau, Weather by CustomWeather, © 2015

Note: Actual official high and low records may vary slightly from our data, if they occured in-between our weather recording intervals... More about our weather records

Advertising

Gaggenau weather history for previous 24 hours

 ConditionsComfort  
Time TempWeatherWind HumidityBarometerVisibility
6:50 AM
Sat, Sep 5
46 °FClear.5 mph87%30.04 "Hg10 mi
6:20 AM45 °FClear.5 mph87%30.04 "Hg10 mi
5:50 AM46 °FClear.3 mph82%30.04 "Hg10 mi
5:20 AM46 °FClear.6 mph82%30.04 "Hg10 mi
4:50 AM46 °FClear.5 mph82%30.04 "Hg10 mi
1:20 AM52 °FClear.6 mph72%30.04 "Hg10 mi
12:50 AM52 °FClear.6 mph72%30.04 "Hg10 mi
12:20 AM55 °FClear.3 mph63%30.04 "Hg10 mi
11:20 PM
Fri, Sep 4
57 °FClear.2 mph59%30.04 "Hg10 mi
10:50 PM55 °FClear.No wind63%30.01 "Hg10 mi
10:20 PM55 °FClear.2 mph63%30.01 "Hg10 mi
9:50 PM57 °FClear.2 mph59%30.01 "Hg10 mi
9:20 PM59 °FClear.2 mph55%30.01 "Hg10 mi
8:50 PM59 °FSunny.3 mph55%30.01 "Hg10 mi
8:20 PM61 °FSunny.2 mph48%29.98 "Hg10 mi
7:50 PM63 °FSunny.3 mph45%29.98 "Hg10 mi
6:50 PM66 °FSunny.7 mph35%29.98 "Hg10 mi
6:20 PM66 °FSunny.3 mph35%29.98 "Hg10 mi
5:50 PM66 °FSunny.6 mph37%29.98 "Hg10 mi
5:20 PM66 °FSunny.6 mph35%29.98 "Hg10 mi
4:50 PM66 °FSunny.5 mph37%30.01 "Hg10 mi
4:20 PM66 °FSunny.6 mph35%30.01 "Hg10 mi
3:50 PM66 °FPassing clouds.6 mph37%30.01 "HgN/A
3:20 PM68 °FPassing clouds.7 mph33%30.01 "HgN/A
2:50 PM68 °FPassing clouds.7 mph33%30.01 "HgN/A
2:20 PM66 °FPassing clouds.7 mph40%30.04 "HgN/A
1:50 PM64 °FPassing clouds.5 mph46%30.04 "HgN/A
1:20 PM64 °FPassing clouds.7 mph46%30.04 "HgN/A
12:50 PM64 °FPassing clouds.8 mph46%30.04 "HgN/A
12:20 PM66 °FPassing clouds.7 mph46%30.04 "HgN/A
11:50 AM64 °FPassing clouds.6 mph49%30.04 "HgN/A
11:20 AM63 °FPassing clouds.7 mph52%30.04 "HgN/A
10:50 AM63 °FPassing clouds.7 mph52%30.04 "HgN/A
10:20 AM61 °FPassing clouds.5 mph59%30.04 "HgN/A
9:50 AM59 °FPassing clouds.5 mph59%30.04 "HgN/A
9:20 AM57 °FPassing clouds.6 mph67%30.04 "HgN/A
8:50 AM55 °FSunny.3 mph67%30.04 "Hg10 mi
8:20 AM54 °FSunny.2 mph77%30.01 "Hg10 mi
7:50 AM50 °FSunny.1 mph82%30.01 "Hg10 mi
7:20 AM50 °FClear.2 mph82%30.01 "Hg10 mi
Weather by CustomWeather, © 2015

See weather overviewHow to use our weather pages